When you browse on this site, cookies collect data to enhance your experience and personalize the content and advertising you see.
Visit our Privacy Policy to learn more. By continuing to use the site, you agree to this use of cookies and data.
  • In Latvia
  • List of Countries
  • For 7 days
  • Water Temperature
  • Weather Map
  • Weather Widgets
  • user-avatar
    Login

    Hourly Weather Bujaly

    Today, 22 February, Saturday

    Time Temperature Precipitation Wind Pressure Humidity
    00:00 0°C° 0 mm 4 mps 754 mmHg 88%
    01:00 0°C° 0 mm 3 mps 754 mmHg 90%
    02:00 -1°C° 0 mm 4 mps 754 mmHg 90%
    03:00 -1°C° 0 mm 4 mps 753 mmHg 90%
    04:00 -1°C° 0 mm 4 mps 753 mmHg 90%
    05:00 -1°C° 0 mm 4 mps 753 mmHg 87%
    06:00 -1°C° 0 mm 5 mps 753 mmHg 84%
    07:00 -1°C° 0 mm 5 mps 753 mmHg 81%
    08:00 -1°C° 0 mm 6 mps 752 mmHg 74%
    09:00 +2°C° 0 mm 7 mps 752 mmHg 67%
    10:00 +3°C° 0 mm 7 mps 751 mmHg 60%
    11:00 +4°C° 0 mm 8 mps 750 mmHg 59%
    12:00 +3°C° 0 mm 9 mps 750 mmHg 59%
    13:00 +5°C° 0 mm 9 mps 749 mmHg 58%
    14:00 +5°C° 0 mm 9 mps 748 mmHg 57%
    15:00 +5°C° 0 mm 9 mps 747 mmHg 55%
    16:00 +6°C° 0 mm 8 mps 746 mmHg 54%
    17:00 +6°C° 0 mm 9 mps 746 mmHg 54%
    18:00 +6°C° 0 mm 9 mps 746 mmHg 53%
    19:00 +6°C° 0 mm 9 mps 746 mmHg 53%
    20:00 +6°C° 0 mm 9 mps 745 mmHg 53%
    21:00 +6°C° 0 mm 9 mps 745 mmHg 54%
    22:00 +6°C° 0 mm 9 mps 744 mmHg 54%
    23:00 +6°C° 0 mm 10 mps 744 mmHg 60%

    Tomorrow, 23 February, Sunday

    Time Temperature Precipitation Wind Pressure Humidity
    00:00 +6°C° 0 mm 10 mps 744 mmHg 65%
    01:00 +6°C° 0 mm 10 mps 744 mmHg 71%
    02:00 +5°C° 0.4 mm 10 mps 744 mmHg 73%
    03:00 +3°C° 0.4 mm 10 mps 744 mmHg 75%
    04:00 +3°C° 0.4 mm 9 mps 744 mmHg 77%
    05:00 +2°C° 0.1 mm 9 mps 744 mmHg 75%
    06:00 +2°C° 0.1 mm 8 mps 745 mmHg 72%
    07:00 +3°C° 0.1 mm 7 mps 745 mmHg 69%
    08:00 +3°C° 0 mm 7 mps 745 mmHg 70%
    09:00 +2°C° 0 mm 8 mps 745 mmHg 71%
    10:00 +4°C° 0 mm 8 mps 744 mmHg 72%
    11:00 +2°C° 0.2 mm 8 mps 744 mmHg 75%
    12:00 +2°C° 0.2 mm 8 mps 744 mmHg 79%
    13:00 +2°C° 0.2 mm 8 mps 744 mmHg 83%
    14:00 +3°C° 0.2 mm 7 mps 742 mmHg 84%
    15:00 +3°C° 0.2 mm 6 mps 741 mmHg 85%
    16:00 +2°C° 0.2 mm 5 mps 740 mmHg 86%
    17:00 +3°C° 1.4 mm 4 mps 738 mmHg 89%
    18:00 +3°C° 1.4 mm 3 mps 737 mmHg 93%
    19:00 +4°C° 1.4 mm 2 mps 735 mmHg 96%
    20:00 +2°C° 2.4 mm 3 mps 734 mmHg 96%
    21:00 +2°C° 2.4 mm 3 mps 733 mmHg 96%
    22:00 +1°C° 2.4 mm 4 mps 732 mmHg 96%
    23:00 -1°C° 1.4 mm 6 mps 734 mmHg 96%

    Day after tomorrow, 24 February, Monday

    Time Temperature Precipitation Wind Pressure Humidity
    00:00 -1°C° 1.4 mm 7 mps 736 mmHg 95%
    01:00 -1°C° 1.4 mm 9 mps 739 mmHg 95%
    02:00 -1°C° 0.1 mm 9 mps 740 mmHg 90%
    03:00 -1°C° 0.1 mm 9 mps 741 mmHg 85%
    04:00 -1°C° 0.1 mm 8 mps 742 mmHg 80%
    05:00 -1°C° 0 mm 9 mps 743 mmHg 81%
    06:00 -1°C° 0 mm 9 mps 744 mmHg 82%
    07:00 -1°C° 0 mm 9 mps 746 mmHg 83%
    08:00 -1°C° 0 mm 9 mps 746 mmHg 80%
    09:00 0°C° 0 mm 8 mps 747 mmHg 78%
    10:00 +1°C° 0 mm 8 mps 748 mmHg 75%
    11:00 +1°C° 0 mm 8 mps 748 mmHg 75%
    12:00 +2°C° 0 mm 7 mps 748 mmHg 75%
    13:00 +2°C° 0 mm 7 mps 748 mmHg 76%
    14:00 +2°C° 0 mm 7 mps 748 mmHg 74%
    15:00 +1°C° 0 mm 6 mps 748 mmHg 73%
    16:00 +1°C° 0 mm 6 mps 747 mmHg 72%
    17:00 +1°C° 0 mm 5 mps 747 mmHg 74%
    18:00 0°C° 0 mm 4 mps 747 mmHg 77%
    19:00 +1°C° 0 mm 3 mps 746 mmHg 80%
    20:00 +1°C° 0 mm 3 mps 745 mmHg 79%
    21:00 +1°C° 0 mm 3 mps 745 mmHg 79%
    22:00 +1°C° 0 mm 3 mps 744 mmHg 78%
    23:00 +1°C° 0.1 mm 5 mps 743 mmHg 80%

    25 February, Tuesday

    Time Temperature Precipitation Wind Pressure Humidity
    00:00 +1°C° 0.1 mm 6 mps 742 mmHg 82%
    01:00 0°C° 0.1 mm 7 mps 741 mmHg 84%
    02:00 +1°C° 0.3 mm 8 mps 740 mmHg 83%
    03:00 +2°C° 0.3 mm 8 mps 739 mmHg 82%
    04:00 +4°C° 0.3 mm 8 mps 737 mmHg 80%
    05:00 +5°C° 0.1 mm 8 mps 737 mmHg 82%
    06:00 +5°C° 0.1 mm 9 mps 737 mmHg 84%
    07:00 +6°C° 0.1 mm 9 mps 737 mmHg 86%
    08:00 +6°C° 0 mm 9 mps 736 mmHg 82%
    09:00 +7°C° 0 mm 9 mps 736 mmHg 79%
    10:00 +8°C° 0 mm 9 mps 736 mmHg 75%
    11:00 +8°C° 0.1 mm 9 mps 736 mmHg 71%
    12:00 +10°C° 0.1 mm 9 mps 736 mmHg 68%
    13:00 +10°C° 0.1 mm 9 mps 736 mmHg 65%
    14:00 +10°C° 0.2 mm 8 mps 735 mmHg 66%
    15:00 +9°C° 0.2 mm 7 mps 735 mmHg 68%
    16:00 +9°C° 0.2 mm 6 mps 734 mmHg 69%
    17:00 +8°C° 0.3 mm 6 mps 734 mmHg 72%
    18:00 +7°C° 0.3 mm 6 mps 734 mmHg 74%
    19:00 +5°C° 0.3 mm 6 mps 734 mmHg 77%
    20:00 +6°C° 0.3 mm 5 mps 734 mmHg 76%
    21:00 +5°C° 0.3 mm 4 mps 734 mmHg 74%
    22:00 +4°C° 0.3 mm 3 mps 734 mmHg 73%
    23:00 +4°C° 0 mm 3 mps 734 mmHg 73%

    26 February, Wednesday

    Time Temperature Precipitation Wind Pressure Humidity
    00:00 +4°C° 0 mm 3 mps 734 mmHg 73%
    01:00 +4°C° 0 mm 3 mps 734 mmHg 74%
    02:00 +3°C° 0 mm 3 mps 734 mmHg 74%
    03:00 +3°C° 0 mm 4 mps 733 mmHg 75%
    04:00 +1°C° 0 mm 4 mps 733 mmHg 75%
    05:00 +2°C° 0 mm 3 mps 733 mmHg 77%
    06:00 +1°C° 0 mm 3 mps 733 mmHg 79%
    07:00 +1°C° 0 mm 3 mps 733 mmHg 80%
    08:00 +2°C° 0 mm 3 mps 733 mmHg 75%
    09:00 +3°C° 0 mm 3 mps 733 mmHg 70%
    10:00 +4°C° 0 mm 3 mps 733 mmHg 66%
    11:00 +5°C° 0 mm 3 mps 733 mmHg 64%
    12:00 +7°C° 0 mm 3 mps 732 mmHg 62%
    13:00 +7°C° 0 mm 3 mps 732 mmHg 60%
    14:00 +7°C° 0 mm 3 mps 732 mmHg 61%
    15:00 +7°C° 0 mm 2 mps 732 mmHg 61%
    16:00 +8°C° 0 mm 1 mps 732 mmHg 62%
    17:00 +7°C° 0 mm 1 mps 732 mmHg 65%
    18:00 +6°C° 0 mm 1 mps 732 mmHg 68%
    19:00 +5°C° 0 mm 0 mps 733 mmHg 70%
    20:00 +6°C° 0 mm 1 mps 733 mmHg 73%
    21:00 +5°C° 0 mm 1 mps 734 mmHg 75%
    22:00 +5°C° 0 mm 1 mps 734 mmHg 77%
    23:00 +5°C° 0.5 mm 1 mps 734 mmHg 83%

    27 February, Thursday

    Time Temperature Precipitation Wind Pressure Humidity
    00:00 +4°C° 0.5 mm 2 mps 735 mmHg 88%
    01:00 +3°C° 0.5 mm 2 mps 735 mmHg 93%
    02:00 +1°C° 1.5 mm 3 mps 735 mmHg 94%
    03:00 0°C° 1.5 mm 5 mps 736 mmHg 95%
    04:00 -2°C° 1.5 mm 6 mps 736 mmHg 96%
    05:00 -2°C° 0.3 mm 6 mps 736 mmHg 92%
    06:00 -2°C° 0.3 mm 6 mps 737 mmHg 88%
    07:00 -2°C° 0.3 mm 6 mps 737 mmHg 84%
    08:00 -2°C° 0 mm 6 mps 738 mmHg 84%
    09:00 -2°C° 0 mm 6 mps 739 mmHg 83%
    10:00 -2°C° 0 mm 6 mps 740 mmHg 83%
    11:00 -1°C° 0.1 mm 6 mps 740 mmHg 81%
    12:00 -1°C° 0.1 mm 6 mps 740 mmHg 80%
    13:00 +1°C° 0.1 mm 6 mps 741 mmHg 78%
    14:00 +1°C° 0.1 mm 6 mps 741 mmHg 76%
    15:00 +1°C° 0.1 mm 6 mps 741 mmHg 73%
    16:00 +1°C° 0.1 mm 6 mps 742 mmHg 71%
    17:00 0°C° 0 mm 5 mps 742 mmHg 74%
    18:00 -1°C° 0 mm 4 mps 743 mmHg 77%
    19:00 0°C° 0 mm 3 mps 743 mmHg 80%
    20:00 -1°C° 0 mm 3 mps 743 mmHg 82%
    21:00 -1°C° 0 mm 2 mps 743 mmHg 84%
    22:00 -1°C° 0 mm 2 mps 744 mmHg 85%
    23:00 -2°C° 0 mm 2 mps 744 mmHg 85%
    Show more